Home   Weather   Lahore   Past weeks

Flag for Pakistan Past Weather in Lahore, Pakistan — Yesterday and Last 2 Weeks

Now
97 °F

Haze.


Feels Like: 105 °F
Forecast: 80 / 99 °F
Wind: 3 mph from Northwest

Location: Lahore Airport

Current Time: Oct 1, 2016 at 1:48:44 PM

Latest Report: Oct 1, 2016 at 12:55 PM


Visibility: 3 mi

Pressure: 29.80 "Hg

Humidity: 44%

Dew Point: 72 °F

Location of LahoreLocation

Past Weather in Lahore — Graph

°F

Lahore Temperature Yesterday

Maximum temperature yesterday: 97 °F (at 1:59 PM)
Minimum temperature yesterday: 81 °F (at 2:25 AM)
Average temperature yesterday: 87 °F

High & Low Weather Summary for the Past Weeks

 TemperatureHumidityPressure
High99 °F (Sep 19, 3:00 PM)89% (Sep 21, 6:55 AM)29.86 "Hg (Sep 21, 6:55 AM)
Low73 °F (Sep 23, 5:55 AM)17% (Sep 21, 8:29 AM)29.59 "Hg (Sep 20, 4:25 PM)
Average87 °F67%29.71 "Hg
* Reported Sep 16 11:25 AM — Oct 1 11:55 AM, Lahore, Weather by CustomWeather, © 2016

Note: Actual official high and low records may vary slightly from our data, if they occured in-between our weather recording intervals... More about our weather records

Advertising

Lahore Weather History for the Previous 24 Hours

Scroll right to see more
 ConditionsComfort  
Time TempWeatherWind HumidityBarometerVisibility
11:55 AM
Sat, Oct 1
95 °FHaze.No wind47%29.80 "Hg2 mi
11:25 AM93 °FClear.5 mph53%29.83 "Hg2 mi
10:55 AM93 °FClear.5 mph53%29.83 "Hg2 mi
10:25 AM91 °FClear.No wind56%29.83 "Hg2 mi
9:55 AM90 °FClear.3 mph59%29.83 "Hg1 mi
8:55 AM88 °FClear.No wind75%29.83 "Hg1 mi
7:55 AM82 °FFog.No wind79%29.80 "Hg1 mi
7:25 AM81 °FFog.3 mph84%29.80 "Hg1 mi
6:55 AM79 °FFog.3 mph89%29.80 "Hg1 mi
5:55 AM81 °FFog.No wind84%29.77 "Hg2 mi
4:55 AM81 °FClear.No wind79%29.74 "Hg2 mi
4:25 AM81 °FClear.No wind79%29.74 "Hg2 mi
3:55 AM82 °FClear.No wind79%29.74 "Hg2 mi
2:55 AM82 °FClear.3 mph79%29.74 "Hg2 mi
12:55 AM84 °FClear.3 mph74%29.74 "Hg2 mi
11:55 PM
Fri, Sep 30
84 °FClear.No wind74%29.71 "Hg2 mi
10:55 PM86 °FClear.No wind75%29.71 "Hg2 mi
9:55 PM86 °FClear.3 mph70%29.71 "Hg2 mi
8:55 PM88 °FPassing clouds.3 mph70%29.68 "Hg2 mi
8:25 PM90 °FPassing clouds.3 mph63%29.68 "Hg2 mi
7:55 PM90 °FPassing clouds.3 mph63%29.68 "Hg2 mi
6:59 PM91 °FPassing clouds.No wind56%29.68 "Hg2 mi
2:59 PM97 °FScattered clouds.6 mph44%29.68 "Hg2 mi
2:25 PM97 °FScattered clouds.6 mph44%29.71 "Hg2 mi
1:59 PM97 °FScattered clouds.7 mph44%29.71 "Hg2 mi
1:30 PM95 °FScattered clouds.6 mph47%29.71 "Hg2 mi
Weather by CustomWeather, © 2016

See weather overviewHow to use our weather pages